Tracking 30995 objects as of 7-Jul-2025
HD Live streaming from Space Station
objects crossing your sky now

SL-3 R/B

Track SL-3 R/B now!
10-day predictions


NORAD ID: 6257
Int'l Code: 1972-085B
Perigee: 835.4 km
Apogee: 919.4 km
Inclination: 81.3 °
Period: 102.4 minutes
Semi major axis: 7248 km
RCS: 6.5788 m2 (large)
Launch date: October 26, 1972
Source: Commonwealth of Independent States (former USSR) (CIS)
Launch site: PLESETSK MISSILE AND SPACE COMPLEX (PKMTR)

Note: This is a ROCKET BODY
Your satellite tracking list
Your tracking list is empty




NASA's NSSDC Master Catalog

Two Line Element Set (TLE):
1 06257U 72085B   25187.50645456  .00000103  00000-0  53037-4 0  9996
2 06257  81.2577 197.6607 0057887 130.3216 230.3031 14.06821854702694
Source of the keplerian elements: AFSPC